STARLINK-30075 (57616 NORAD) Tracking and Keplerian Element Data

This shows tracking and keplerian element data for the satellite.

Feedback or suggestion? Click here.




ElementValue
Catalog57616
NameSTARLINK-30075
Epoch Orbit2475
Epoch Day13.15027951
Epoch Year2024
RAAN35.9836
Inclination43.0032
Eccentricity0.0001528
Argument of Perigee266.4446
Mean Anonmoly93.6221
Mean Motion15.02531125
Decay Rate4.801E-05
L11 57616U 23119Q 24013.15027951 .00004801 00000+0 37030-3 0 9999
L22 57616 43.0032 35.9836 0001528 266.4446 93.6221 15.02531125 24757



Live tracking and technical data element details for STARLINK-30075 (NORAD 57616). STARLINK-30075 can be tracked NOW for your location showing map with azimuth and elevation plus other details from your city location.







IsCatalogInMostPopularTable: catalog: 57616, numindb: 26
Update: records affected: 1



GetName: 57616 STARLINK-30075

Hit Count: updated at: Thu, 22 Feb 2024 00:52:51 GMT